www.pogodaiklimat.ru

Погода и климат >> Архив погоды >> Швейцария >> Цюрих


АРХИВ ПОГОДЫ в Цюрихе

Время (UTC), дата Ветер
(напр.,м/с)
 
Видим.   Явления Облачность Т
(С)
Тd
(С)
f
(%)
Тe
(С)
Тes
(С)
Комфортность P
(гПа)
Po
(гПа)
Тmin
(С)
Tmax
(С)
R
(мм)
R24
(мм)
S
(см)
07 18.05 З 1
{2}
н/о н/о +11.3 +8.7 84 +12 +12 по сезону 1005.9 941.4
08 18.05 З 1
{2}
н/о н/о +12.2 +8.8 80 +12 +12 по сезону 1005.3 941.1
09 18.05 З 1
{2}
н/о н/о +12.9 +8.8 76 +13 +13 по сезону 1005.1 941.0
10 18.05 ЮВ 2
{4}
н/о н/о +14.0 +9.4 74 +14 +14 прохладно 1004.8 941.0
11 18.05 СВ 2
{4}
н/о н/о +15.0 +8.4 65 +15 +15 по сезону 1004.3 940.8
12 18.05 В 1
{4}
н/о н/о +15.0 +8.8 66 +16 +16 по сезону 1004.2 940.7
13 18.05 СЗ 2
{5}
н/о н/о +16.0 +8.5 61 +16 +16 по сезону 1003.8 940.5
14 18.05 С 2
{4}
н/о н/о +16.8 +7.9 56 +17 +17 по сезону 1003.2 940.1
15 18.05 ЮЗ 2
{5}
н/о н/о +17.4 +8.9 57 +18 +18 тепло 1002.7 939.8
16 18.05 ЮЗ 2
{4}
н/о н/о +17.2 +8.6 57 +18 +18 тепло 1002.8 939.8
17 18.05 Ю 2
{4}
н/о н/о +15.1 +10.0 72 +15 +15 по сезону 1003.3 939.8
18 18.05 Ю 2
{5}
н/о 3/0
[]
+14.8 +10.1 73 +15 +15 по сезону 1003.4 939.9 +17.9
19 18.05 СЗ 1
{2}
н/о н/о +13.2 +10.0 81 +14 +14 тепло 1004.5 940.5
20 18.05 СВ 1
{2}
н/о н/о +13.7 +10.2 79 +15 +15 тепло 1004.9 941.0
21 18.05 ЮЗ 1
{2}
н/о н/о +12.9 +10.9 88 +14 +14 по сезону 1005.0 940.9
22 18.05 Ю 3
{5}
н/о н/о +10.9 +9.7 92 +9 +9 по сезону 1005.9 941.3 2
23 18.05 С 1
{4}
н/о н/о +10.5 +9.5 94 +10 +10 по сезону 1006.2 941.5 1
00 19.05 СЗ 1
{5}
н/о н/о +10.6 +9.6 94 +10 +10 по сезону 1006.0 941.4 0.8
01 19.05 ЮЗ 1
{3}
н/о н/о +10.6 +9.9 95 +11 +11 по сезону 1005.9 941.3
02 19.05 СЗ 1
{3}
н/о н/о +10.4 +9.7 95 +10 +10 по сезону 1006.0 941.3 0.1
03 19.05 З 1
{3}
н/о н/о +10.3 +9.6 95 +11 +11 по сезону 1005.7 941.0 1
04 19.05 ЮЗ 1
{2}
н/о н/о +10.3 +9.7 96 +11 +11 тепло 1005.5 940.8
05 19.05 ЮЗ 1
{2}
н/о н/о +10.4 +9.9 97 +11 +11 по сезону 1005.6 940.9 0.1
06 19.05 ЮЗ 1
{3}
н/о н/о +10.8 +10.3 97 +10 +10 по сезону 1005.5 940.9 +10.1
07 19.05 СЗ 1
{3}
н/о н/о +10.9 +9.5 91 +10 +10 прохладно 1005.4 940.9
08 19.05 З 1
{2}
н/о н/о +11.6 +10.1 91 +11 +11 по сезону 1005.4 941.0
09 19.05 СЗ 2
{3}
н/о н/о +12.7 +10.0 84 +12 +12 по сезону 1004.9 940.8
10 19.05 С 1
{3}
н/о н/о +13.4 +9.9 79 +14 +14 прохладно 1004.5 940.6
11 19.05 З 2
{5}
н/о н/о +14.6 +10.2 75 +14 +14 прохладно 1003.9 940.3
12 19.05 З 1
{5}
н/о 9/0
[]
+15.2 +9.1 67 +16 +27 по сезону 1003.4 940.0
13 19.05 ЮВ 1
{4}
н/о н/о +15.5 +8.2 62 +17 +17 по сезону 1003.2 939.8
14 19.05 ЮЗ 2
{3}
н/о н/о +16.2 +8.7 61 +17 +17 по сезону 1002.7 939.5
15 19.05 З 2
{4}
н/о н/о +16.2 +9.0 62 +16 +16 по сезону 1002.6 939.4
16 19.05 З 3
{5}
н/о н/о +16.6 +9.8 64 +16 +16 по сезону 1002.4 939.3
17 19.05 З 2
{4}
н/о н/о +16.3 +8.7 61 +17 +17 тепло 1002.4 939.3
18 19.05 Ю 2
{5}
н/о 5/0
[]
+13.7 +11.1 84 +13 +14 прохладно 1003.5 939.7 +16.9 0.1
19 19.05 ЮВ 1
{2}
н/о н/о +13.1 +11.4 89 +14 +14 по сезону 1004.1 940.1 0.1
20 19.05 С 2
{6}
н/о н/о +11.1 +9.7 91 +10 +10 прохладно 1005.1 940.6 5
21 19.05 СЗ 2
{6}
н/о н/о +11.4 +10.2 92 +11 +11 по сезону 1005.3 940.9
22 19.05 З 2
{5}
н/о н/о +11.4 +10.6 95 +10 +10 по сезону 1005.3 940.9
23 19.05 З 2
{3}
н/о н/о +11.4 +10.7 95 +10 +10 по сезону 1005.2 940.8
00 20.05 З 2
{6}
н/о н/о +11.4 +10.6 95 +10 +10 по сезону 1005.2 940.8 0.6
01 20.05 З 3
{5}
н/о н/о +11.3 +10.7 96 +10 +10 по сезону 1004.8 940.4 2
02 20.05 З 2
{4}
н/о н/о +11.2 +10.6 96 +10 +10 по сезону 1004.7 940.3
03 20.05 З 2
{6}
н/о н/о +10.9 +10.3 96 +10 +10 по сезону 1004.8 940.3 3
04 20.05 ЮЗ 2
{4}
н/о н/о +10.9 +10.2 95 +10 +10 по сезону 1005.0 940.5 0.7
05 20.05 ЮЗ 2
{3}
н/о н/о +11.1 +10.5 96 +10 +10 по сезону 1005.1 940.6 0.7
06 20.05 Ю 2
{6}
н/о 10/0
[]
+10.5 +10.0 97 +9 +11 по сезону 1005.5 940.9 +10.6 0.9
07 20.05 Ю 2
{4}
н/о н/о +10.0 +9.5 97 +8 +8 холодно 1006.0 941.2 0.9
08 20.05 Ю 2
{4}
н/о н/о +10.1 +9.6 97 +8 +8 холодно 1006.3 941.5 2
09 20.05 Ю 2
{4}
н/о н/о +10.1 +9.5 96 +9 +9 холодно 1006.9 942.1 5
10 20.05 Ю 3
{5}
н/о н/о +10.5 +9.9 96 +9 +9 очень
холодно
1006.9 942.2 4
11 20.05 Ю 3
{6}
н/о н/о +10.5 +9.9 96 +9 +9 очень
холодно
1007.2 942.5 3
12 20.05 Ю 4
{6}
н/о 10/0
[]
+10.4 +9.8 96 +8 +14 очень
холодно
1007.5 942.7 4
13 20.05 ЮЗ 4
{8}
н/о н/о +10.0 +9.3 95 +7 +7 очень
холодно
1007.8 942.9 6
14 20.05 ЮЗ 3
{8}
н/о н/о +10.2 +9.4 95 +8 +8 очень
холодно
1008.0 943.1 2
15 20.05 ЮЗ 3
{8}
н/о н/о +10.3 +9.6 95 +8 +8 очень
холодно
1008.3 943.4 0.3
16 20.05 Ю 2
{6}
н/о н/о +10.4 +9.7 95 +9 +9 холодно 1008.2 943.4 0.4
17 20.05 ЮЗ 4
{6}
н/о н/о +10.6 +9.8 95 +8 +8 очень
холодно
1008.5 943.7
18 20.05 ЮЗ 4
{8}
н/о 10/0
[]
+10.5 +9.9 96 +8 +8 очень
холодно
1008.8 944.0 +10.8 3
19 20.05 ЮЗ 2
{5}
н/о н/о +10.5 +9.8 95 +9 +9 прохладно 1009.4 944.5 3
20 20.05 З 3
{7}
н/о н/о +11.0 +10.3 95 +9 +9 прохладно 1009.7 944.9 0.6
21 20.05 З 4
{8}
н/о н/о +10.9 +10.2 95 +8 +8 холодно 1010.2 945.4 0.2
22 20.05 З 4
{9}
н/о н/о +10.8 +10.0 95 +8 +8 по сезону 1010.6 945.7 0.9
23 20.05 З 4
{9}
н/о н/о +10.4 +9.4 94 +8 +8 по сезону 1011.0 946.0 0.1
00 21.05 З 5
{9}
н/о н/о +10.3 +9.3 94 +7 +7 прохладно 1011.0 946.0 0.1
01 21.05 З 4
{9}
н/о н/о +10.0 +9.3 95 +7 +7 по сезону 1011.3 946.2 1
02 21.05 З 4
{7}
н/о н/о +10.1 +9.5 96 +7 +7 прохладно 1011.2 946.1 3
03 21.05 З 5
{9}
н/о н/о +9.9 +9.2 95 +7 +7 прохладно 1011.6 946.4 0.2
04 21.05 ЮЗ 5
{9}
н/о н/о +9.6 +8.5 93 +6 +6 прохладно 1011.6 946.4 0.1
05 21.05 З 4
{9}
н/о н/о +9.6 +8.5 93 +7 +7 прохладно 1012.1 946.8
06 21.05 З 5
{9}
н/о н/о +9.7 +8.9 95 +6 +7 прохладно 1012.5 947.2 +9.5
07 21.05 З 5
{11}
н/о н/о +10.2 +8.7 90 +7 +7 холодно 1012.9 947.7
08 21.05 З 4
{10}
н/о н/о +10.7 +8.9 89 +8 +8 холодно 1013.2 948.1
09 21.05 З 4
{11}
н/о н/о +11.0 +9.1 88 +8 +8 холодно 1013.4 948.4
10 21.05 З 3
{9}
н/о н/о +10.6 +9.4 92 +8 +8 очень
холодно
1013.8 948.7 0.9
11 21.05 З 3
{7}
н/о н/о +10.3 +9.4 94 +8 +8 очень
холодно
1014.5 949.2 2
12 21.05 З 4
{11}
н/о 10/0
[]
+11.0 +10.0 94 +9 +15 очень
холодно
1014.7 949.6 2
13 21.05 З 3
{6}
н/о н/о +11.5 +10.5 94 +10 +10 холодно 1014.9 949.9 0.4
14 21.05 З 3
{7}
н/о н/о +11.9 +10.5 91 +10 +10 холодно 1015.2 950.3 0.3
15 21.05 ЮЗ 3
{7}
н/о н/о +11.8 +10.4 91 +10 +10 холодно 1015.5 950.5 0.2
16 21.05 ЮЗ 3
{5}
н/о н/о +11.7 +10.5 92 +10 +10 холодно 1015.8 950.8 0.2
17 21.05 З 2
{5}
н/о н/о +11.7 +10.6 93 +10 +10 холодно 1016.0 951.0 0.7
18 21.05 З 1
{7}
н/о 10/0
[]
+11.6 +10.7 94 +11 +12 холодно 1016.5 951.4 +12.1 0.6
19 21.05 Ю 1
{3}
н/о н/о +11.3 +10.6 95 +11 +11 по сезону 1016.9 951.7 0.2
20 21.05 Ю 1
{2}
н/о н/о +10.9 +10.2 95 +11 +11 по сезону 1017.8 952.5 0.1
21 21.05 Ю 1
{3}
н/о н/о +10.8 +10.2 96 +10 +10 прохладно 1018.2 952.8 0.2
22 21.05 Ю 1
{2}
н/о н/о +10.9 +10.1 95 +10 +10 по сезону 1018.3 952.9 0.2
23 21.05 Ю 1
{2}
н/о н/о +10.8 +10.2 96 +10 +10 по сезону 1018.3 952.9 0.1
00 22.05 З 1
{3}
н/о н/о +10.8 +10.2 96 +10 +10 по сезону 1018.3 952.9 0.4
01 22.05 З 2
{3}
н/о н/о +10.8 +10.1 95 +10 +10 по сезону 1018.3 952.9 0.2
02 22.05 З 1
{3}
н/о н/о +10.6 +10.0 96 +10 +10 по сезону 1018.4 953.0 0.2
03 22.05 З 2
{4}
н/о н/о +10.4 +9.8 96 +9 +9 по сезону 1018.5 953.0
04 22.05 З 2
{4}
н/о н/о +10.4 +9.6 95 +9 +9 по сезону 1018.6 953.1
05 22.05 З 2
{4}
н/о н/о +10.3 +9.5 95 +9 +9 по сезону 1018.8 953.3 0.1
06 22.05 З 2
{4}
н/о н/о +10.3 +9.3 94 +9 +11 по сезону 1019.4 953.8 +10.3
07 22.05 З 2
{4}
н/о н/о +11.5 +9.5 88 +11 +11 прохладно 1019.4 954.1
08 22.05 ЮЗ 2
{4}
н/о н/о +12.8 +10.2 84 +12 +12 по сезону 1019.1 954.1
09 22.05 З 2
{4}
н/о н/о +13.3 +6.9 65 +13 +13 по сезону 1019.0 954.1
10 22.05 ЮЗ 2
{5}
н/о н/о +15.0 +8.6 66 +15 +15 прохладно 1018.8 954.3
11 22.05 ЮЗ 2
{5}
н/о н/о +17.3 +7.8 54 +18 +18 по сезону 1018.1 954.2
12 22.05 СЗ 1
{5}
н/о 5/0
[]
+18.0 +4.4 41 +19 +35 опасность
простуды
1017.7 954.0
13 22.05 З 2
{6}
н/о н/о +17.3 +5.1 44 +18 +18 по сезону 1017.6 953.7
14 22.05 З 3
{6}
н/о н/о +17.8 +4.4 41 +18 +18 тепло 1017.3 953.6
15 22.05 З 2
{6}
н/о н/о +17.0 +6.2 49 +18 +18 тепло 1017.6 953.7
16 22.05 З 2
{5}
н/о н/о +17.2 +5.6 46 +18 +18 тепло 1017.6 953.7
17 22.05 З 3
{6}
н/о н/о +17.9 +4.3 41 +18 +18 тепло 1017.4 953.7
18 22.05 З 2
{6}
н/о 5/0
[]
+16.8 +1.8 36 +17 +18 по сезону 1017.8 953.8 +18.4
19 22.05
{4}
н/о н/о +13.8 +6.7 62 1018.9 954.2
20 22.05 СВ 3
{5}
н/о н/о +13.6 +6.1 60 +13 +13 по сезону 1019.5 954.7
21 22.05 СВ 2
{6}
н/о н/о +11.9 +4.9 62 +11 +11 прохладно 1020.3 955.0
22 22.05 СВ 2
{4}
н/о н/о +11.7 +4.6 62 +11 +11 по сезону 1020.3 955.0
23 22.05 СВ 2
{4}
н/о н/о +10.9 +4.2 63 +10 +10 по сезону 1020.3 954.8
00 23.05 СВ 2
{6}
н/о н/о +9.8 +4.4 69 +9 +9 по сезону 1020.6 954.8
01 23.05 СВ 2
{4}
н/о н/о +8.6 +5.1 79 +7 +7 по сезону 1020.8 954.7
02 23.05 СВ 2
{5}
н/о н/о +8.3 +5.5 83 +7 +7 прохладно 1020.7 954.6
03 23.05 СВ 2
{5}
н/о н/о +8.1 +5.8 85 +7 +7 прохладно 1020.7 954.5
04 23.05 В 2
{3}
н/о н/о +7.8 +5.9 88 +6 +6 прохладно 1020.9 954.6
05 23.05 В 1
{2}
н/о н/о +8.2 +6.6 90 +7 +7 прохладно 1020.6 954.5
06 23.05 ЮЗ 1
{5}
н/о 8/0
[]
+9.9 +7.4 84 +10 +13 по сезону 1020.2 954.5 +7.7
07 23.05 СВ 2
{4}
н/о н/о +11.9 +7.3 73 +11 +11 прохладно 1019.5 954.3
08 23.05 СВ 2
{5}
н/о н/о +13.4 +7.7 68 +13 +13 по сезону 1019.0 954.2
09 23.05 СВ 3
{6}
н/о н/о +15.5 +8.1 61 +15 +15 по сезону 1018.3 954.0
10 23.05 СВ 3
{6}
н/о н/о +16.1 +6.9 54 +16 +16 по сезону 1018.2 954.0
11 23.05 СВ 2
{6}
н/о н/о +16.8 +6.0 49 +17 +17 по сезону 1017.6 953.6
12 23.05 В 2
{7}
н/о 1/0
[]
+18.1 +6.1 45 +19 +37 опасность
простуды
1016.8 953.2
13 23.05 СВ 3
{5}
н/о н/о +19.0 +5.5 41 +20 +20 тепло 1016.0 952.6
14 23.05 В 2
{6}
н/о н/о +19.6 +6.1 41 +21 +21 комфорт 1015.5 952.3
15 23.05 СВ 2
{6}
н/о н/о +19.9 +6.1 41 +21 +21 комфорт 1015.0 951.9
16 23.05 СВ 2
{5}
н/о н/о +20.1 +4.9 37 +22 +22 комфорт 1014.7 951.6
17 23.05 СВ 2
{5}
н/о н/о +19.7 +5.4 39 +21 +21 комфорт 1014.4 951.3
18 23.05 СВ 2
{6}
н/о ясно +17.9 +5.0 43 +19 +19 тепло 1014.8 951.2 +20.6
19 23.05 СВ 2
{4}
н/о н/о +15.5 +5.4 51 +15 +15 тепло 1015.6 951.5
20 23.05 СВ 3
{3}
н/о н/о +14.3 +4.2 51 +14 +14 по сезону 1016.0 951.6
21 23.05 СВ 2
{4}
н/о н/о +13.1 +5.5 60 +13 +13 по сезону 1016.2 951.5
22 23.05 СВ 2
{3}
н/о н/о +12.3 +5.6 64 +12 +12 тепло 1016.4 951.5
23 23.05 ЮВ 1
{3}
н/о н/о +11.1 +5.7 69 +12 +12 по сезону 1016.6 951.4
00 24.05 СВ 1
{4}
н/о н/о +10.8 +6.2 73 +11 +11 по сезону 1016.6 951.3
01 24.05 В 1
{2}
н/о н/о +10.0 +6.4 78 +11 +11 по сезону 1016.5 951.0
02 24.05 СВ 1
{2}
н/о н/о +9.6 +6.4 80 +10 +10 по сезону 1016.3 950.8
03 24.05 С 1
{2}
н/о н/о +9.1 +6.6 84 +8 +8 прохладно 1016.2 950.6
04 24.05 С 1
{3}
н/о н/о +8.6 +6.4 86 +9 +9 по сезону 1016.5 950.7
05 24.05 СВ 1
{2}
н/о н/о +9.5 +7.2 86 +10 +10 по сезону 1016.3 950.7
06 24.05 ЮЗ 1
{3}
н/о 3/0
[]
+11.5 +8.0 79 +12 +15 по сезону 1016.1 951.0 +8.6
07 24.05 ЮЗ 1
{2}
н/о н/о +13.1 +8.3 73 +14 +14 по сезону 1015.7 951.0
08 24.05 Ю 1
{3}
н/о н/о +15.3 +7.9 61 +17 +17 тепло 1015.2 951.0
09 24.05 С 2
{3}
н/о н/о +17.7 +8.0 53 +18 +18 тепло 1014.4 950.8
10 24.05 С 2
{3}
н/о н/о +19.5 +8.0 47 +21 +21 комфорт 1013.7 950.6
11 24.05 СВ 2
{4}
н/о н/о +20.6 +8.3 45 +23 +23 комфорт 1013.2 950.3
12 24.05 В 2
{4}
н/о 6/0
[]
+20.8 +9.2 47 +23 +37 комфорт 1012.8 950.0
13 24.05 СЗ 2
{5}
н/о н/о +21.2 +4.4 33 +21 +21 комфорт 1012.4 949.7
14 24.05 СЗ 2
{6}
н/о н/о +21.8 +3.7 30 +22 +22 комфорт 1012.1 949.6
15 24.05 СЗ 2
{6}
н/о н/о +21.4 +5.4 35 +22 +22 комфорт 1012.0 949.4
16 24.05 С 2
{7}
н/о н/о +21.6 +5.5 35 +22 +22 комфорт 1011.7 949.1
17 24.05 С 2
{5}
н/о н/о +21.5 +7.8 41 +22 +22 комфорт 1011.3 948.7
18 24.05 СВ 3
{7}
н/о 4/0
[]
+19.6 +8.8 50 +21 +21 комфорт 1011.9 948.9 +21.9
19 24.05 СВ 3
{5}
н/о н/о +17.5 +8.4 55 +18 +18 тепло 1012.7 949.2
20 24.05 СВ 3
{4}
н/о н/о +15.7 +8.7 63 +15 +15 по сезону 1013.6 949.6
21 24.05 СВ 2
{5}
н/о н/о +14.3 +8.6 69 +14 +14 по сезону 1014.1 949.8
22 24.05
{4}
н/о н/о +13.3 +8.9 75 1014.5 949.9
23 24.05 СВ 2
{5}
н/о н/о +12.8 +8.7 76 +12 +12 по сезону 1014.7 950.0
00 25.05 СВ 2
{5}
н/о н/о +12.4 +8.5 77 +11 +11 по сезону 1014.6 949.8
01 25.05 СВ 1
{3}
н/о н/о +11.8 +8.5 80 +12 +12 тепло 1014.6 949.7
02 25.05 З 1
{2}
н/о н/о +12.0 +8.9 81 +13 +13 тепло 1014.6 949.7
03 25.05 С 2
{3}
н/о н/о +12.8 +8.8 77 +12 +12 по сезону 1014.4 949.7
04 25.05 штиль 0
{3}
н/о н/о +12.5 +9.1 80 +12 +12 тепло 1014.8 950.0
05 25.05 ЮВ 1
{2}
н/о н/о +12.6 +9.8 83 +13 +13 тепло 1015.2 950.4
06 25.05 штиль 0 н/о н/о +13.2 +9.5 78 +13 +13 тепло 1015.3 950.7 +11.8

 

Местоположение метеостанции Цюрих (Швейцария): широта 47.38 долгота 8.57 высота над уровнем моря 569 м.

В архиве по умолчанию представлена погода в Цюрихе за последнюю неделю. Архивные данные за месяц целиком и за предыдущие месяцы, начиная с января 2011 года, Вы можете получить, выбрав интересующий диапазон дат из раскрывающегося списка и нажав кнопку "Ввод!".


*Определитесь, кто Вы:
робот инопланетянин человек

Внимание! Время в таблицах - всемирное. Для получения местного времени необходимо прибавить поправку, которая равна 1 ч.

Смотрите также архив погоды в соседних городах и на ближайших метеорологических станциях:

Погода в Реккенхольце (Швейцария) (7 км)
Погода в Цюрих аэропорту (Швейцария) (12 км)
Погода на Легерне (Швейцария) (17 км)
Погода в Веденсвиле (Швейцария) (20 км)
Погода в Чаме (Швейцария) (23 км)
Погода в Тениконе (Швейцария) (27 км)
Погода в Хёрнли (Швейцария) (29 км)
Погода в Институте Пауля Шеррера (Швейцария) (31 км)
Погода в Мозене (Швейцария) (31 км)
Погода в Айнзидельне (Швейцария) (31 км)

Пояснения к столбцам:

Ветер - указаны скорость ветра в м/с - средняя за 10 мин, порывы в срок и между сроками (в фигурных скобках) и направление, откуда дует ветер: С - северный, СВ - северо-восточный, В - восточный, ЮВ - юго-восточный, Ю - южный, ЮЗ - юго-западный, З - западный, СЗ - северо-западный.
Видимость - горизонтальная дальность видимости в метрах или километрах. При видимости от 1 до 10 км при отсутствии осадков обычно наблюдается дымка, при ухудшении видимости до 1 км и менее - туман. В сухую погоду видимость может ухудшаться дымом, пылью или мглою.
Явления - указаны атмосферные явления, наблюдавшиеся в срок или в последний час перед сроком; фигурными скобками обозначены явления, наблюдавшиеся между сроками (за 1-3 часа до срока); квадратными скобками обозначены град или гололедные отложения с указанием их диаметра в мм.
Облачность - указаны через наклонную черту общая и нижняя облачность в баллах и высота нижней границы облаков в метрах; квадратными скобками обозначены формы облаков: Ci - перистые, Cs - перисто-слоистые, Cc - перисто-кучевые, Ac - высококучевые, As - высокослоистые, Sc - слоисто-кучевые, Ns - слоисто-дождевые, Cu - кучевые, Cb - кучево-дождевые. Подробнее классификацию облаков см. в Атласе облаков (PDF).
T - Температура воздуха - температура, измеренная на высоте 2 м над землей.
Td - Температура точки росы - температура, при понижении до которой содержащийся в воздухе водяной пар достигнет насыщения.
f - Относительная влажность воздуха - влажноcть воздуха, измеренная на высоте 2 м над землей.
Te - Эффективная температура - температура, которую ощущает одетый по сезону человек в тени. Характеристика душности погоды. При расчете учитывается влияние влажности воздуха и скорости ветра на теплоощущения человека.
Tes - Эффективная температура на солнце - температура, которую ощущает человек, с поправкой на солнечный нагрев. Характеристика знойности погоды. Зависит от высоты солнца над горизонтом, облачности и скорости ветра. Ночью, в пасмурную погоду, а также при ветре 12 м/с и более поправка равна нулю.
P - Атмосферное давление - приведенное к уровню моря атмосферное давление.
Po - Атмосферное давление - измеренное на уровне метеостанции атмосферное давление.
Tmin - Минимальная температура - минимум температуры воздуха на высоте 2 м над землей.
Tmax - Максимальная температура - максимум температуры воздуха на высоте 2 м над землей.
R - Количество осадков - Количество выпавших осадков за период времени, мм. При наведении курсора мыши на число - период времени, за который выпало указанное количество осадков.
R24 - Количество осадков - Количество выпавших осадков за 24 часа, мм.
S - Снежный покров - Высота снежного покрова, см. При наведении курсора мыши на число - состояние снежного покрова и степень покрытия местности в баллах.